Temp
26 25 28 30 32 34 35 36 36 36 36 35 35 34 34 34 33 31 29 29 28 28 27 24 22 22 21 21 20 20 19 18 18 18 18 17 17 17 17 17 17 17 17 18 18 18 18 18 18
27 27 29 32 33 34 35 36 35 36 36 35 34 34 34 33 33 33 31 28 28 28 26 26 23 23 23 21 20 20 18 18 18 18 17 17 17 17 17 17 17 17 17 17 18 18 18 18 18
28 29 32 34 34 35 35 36 36 36 35 35 34 34 33 32 32 32 29 28 28 27 27 25 24 23 22 21 20 20 20 19 18 18 18 17 17 17 17 17 17 17 17 17 18 18 18 18 18
29 32 33 33 34 35 34 35 35 35 36 35 35 34 33 31 31 30 29 28 28 28 28 25 24 23 22 20 19 19 19 18 18 18 18 18 17 17 17 16 17 17 17 17 17 17 17 18 18
30 33 33 33 34 36 35 36 35 35 35 35 35 33 33 30 29 29 28 28 28 28 27 26 23 22 22 20 18 18 18 18 17 17 17 17 17 17 17 17 16 16 16 17 17 17 17 17 18
33 34 33 34 35 35 36 35 35 35 35 35 34 33 33 31 29 29 28 27 27 26 25 24 23 22 21 19 18 18 18 17 17 16 16 16 16 16 16 17 17 16 16 16 17 17 16 17 18
32 33 33 34 34 35 35 35 34 35 35 35 35 32 33 32 30 28 27 26 25 25 24 24 23 22 21 20 19 18 18 17 17 17 15 14 15 15 15 16 16 16 16 16 16 16 16 16 17
33 33 33 34 34 34 36 35 36 34 34 35 34 32 32 32 29 27 27 27 26 25 25 24 24 23 22 21 19 18 17 16 15 15 14 14 14 14 15 15 16 16 16 16 16 16 16 16 17
35 32 33 34 34 35 36 35 36 35 34 34 34 33 32 30 28 28 28 28 28 26 25 24 23 22 21 20 20 18 17 16 15 15 15 14 15 17 17 17 17 16 16 16 16 16 16 16 16
33 32 33 35 35 34 35 35 35 35 34 33 33 32 29 29 29 29 29 29 28 27 26 24 22 20 19 20 20 19 18 16 15 14 13 14 15 15 16 16 15 15 15 16 16 16 16 16 19
33 32 34 34 34 35 34 35 36 34 33 34 33 33 31 30 29 29 30 29 27 26 25 24 21 19 18 19 19 18 18 15 14 14 14 13 13 16 16 16 17 16 15 16 16 17 17 19 19
33 33 34 34 34 35 34 35 34 34 34 35 34 34 33 31 30 29 29 28 27 25 24 22 21 19 18 18 19 19 18 15 16 15 14 14 15 15 15 15 16 16 16 16 16 17 19 19 20
33 33 33 35 35 35 35 34 34 34 35 34 34 33 32 32 30 29 28 27 25 24 23 22 20 19 18 17 18 18 16 15 17 17 16 15 15 15 15 16 16 17 17 16 16 18 20 20 19
34 34 34 34 35 34 33 34 33 34 34 33 33 33 32 31 30 29 26 26 24 23 22 21 20 19 18 18 17 16 16 16 17 18 16 15 15 14 14 15 16 16 17 16 16 18 20 19 18
34 33 34 34 34 34 34 32 33 34 34 33 32 31 31 32 30 28 26 25 24 23 22 21 20 19 19 18 18 17 16 16 17 17 16 16 15 14 14 15 16 15 16 16 17 17 18 17 18
33 33 32 34 34 34 33 31 34 34 34 33 32 33 32 31 30 28 26 24 23 22 22 21 21 20 20 19 18 17 17 16 16 15 15 15 15 15 14 15 16 15 15 16 16 19 18 18 19
32 31 32 33 35 34 33 31 34 35 34 33 33 33 32 31 28 27 25 24 23 22 22 21 20 20 19 19 19 19 17 16 15 15 15 15 15 16 15 15 15 16 15 16 18 19 19 19 19
31 32 33 33 35 34 33 32 34 34 34 33 33 32 32 30 29 26 25 24 23 22 21 21 20 20 19 20 19 19 17 16 15 15 15 15 15 15 16 15 15 15 15 16 16 17 18 20 20
33 33 33 34 35 34 33 32 33 34 34 33 33 33 32 30 29 26 24 23 23 22 21 21 21 20 19 21 21 20 18 19 17 15 14 14 14 15 16 15 15 16 16 16 17 18 19 19 20
33 32 32 33 34 33 32 32 33 33 34 34 34 33 32 30 29 27 24 23 23 22 22 21 21 20 20 21 20 19 17 18 18 17 15 15 15 15 16 16 17 17 16 16 17 18 18 19 18
33 32 32 32 33 33 32 31 33 34 34 34 34 33 32 30 28 26 25 23 23 23 22 22 21 20 19 20 21 20 19 17 17 17 17 15 15 15 15 16 18 17 18 17 17 18 19 19 18
32 33 32 32 31 30 33 30 32 33 33 34 33 33 32 31 29 27 25 24 23 23 22 22 21 21 20 19 20 20 18 18 18 17 16 15 15 15 16 16 17 18 19 20 18 18 18 18 17
32 33 33 32 30 30 31 30 32 34 33 33 34 34 33 31 29 27 26 24 24 23 22 22 21 21 20 20 19 20 19 18 16 16 16 15 15 15 16 16 17 18 18 19 18 18 18 19 19
33 32 32 31 30 29 31 31 32 33 33 33 34 34 32 31 29 27 26 24 24 23 23 22 22 21 21 21 20 19 18 18 18 17 17 17 15 15 15 16 16 17 17 17 17 18 17 18 17
32 31 29 28 29 29 32 31 32 33 34 34 33 33 32 30 28 27 26 25 24 24 23 22 22 22 21 21 20 19 20 18 17 16 16 17 16 15 15 15 15 16 16 17 17 17 17 17 17
31 31 30 27 29 31 32 30 32 34 34 34 33 33 31 29 28 27 26 26 25 24 23 23 22 22 22 21 20 20 20 19 17 17 16 16 15 15 15 15 15 16 17 17 16 16 17 17 17
32 30 32 30 31 30 32 33 33 33 33 33 33 31 30 29 28 27 27 26 25 24 23 23 23 22 22 21 20 20 20 19 17 17 17 16 15 15 15 16 16 16 16 16 16 16 17 17 16
33 33 30 31 27 27 31 31 32 32 33 32 32 31 29 28 28 28 27 25 25 24 23 23 22 22 22 21 21 21 20 20 19 19 18 17 16 16 16 16 16 16 16 16 16 16 16 16 15
32 32 31 31 31 29 29 31 33 33 33 32 32 31 29 29 28 28 27 25 25 24 24 23 23 22 22 21 21 21 21 20 20 20 19 17 17 16 16 17 17 16 16 16 17 16 16 16 15
33 32 32 30 29 30 31 32 34 33 33 33 32 31 30 30 29 29 28 26 26 25 24 23 23 23 22 22 21 21 21 20 20 20 19 18 17 16 16 16 16 17 17 17 17 18 17 15 15
Height
789 789 789 786 791 769 765 749 743 753 751 748 751 758 763 759 769 786 777 779 781 782 785 788 791 792 792 793 794 796 798 799 799 800 800 801 801 801 801 801 800 800 801 803 803 803 803 803 802
790 790 787 776 787 776 763 743 754 749 747 751 754 756 760 767 762 765 771 778 781 783 786 787 788 790 790 791 792 794 795 796 797 797 797 798 798 798 797 797 798 798 799 800 801 801 801 801 801
789 788 780 772 769 771 765 749 749 746 748 753 754 754 759 766 768 769 776 779 781 783 784 785 788 789 789 790 790 791 792 793 793 793 793 793 794 794 794 794 795 796 796 797 798 799 798 799 799
787 781 773 781 774 757 759 752 749 750 744 748 749 759 759 767 770 773 776 780 781 780 782 783 785 786 787 787 787 789 790 790 791 790 789 789 789 790 791 791 792 793 794 795 795 796 796 796 796
783 772 778 775 764 750 749 747 748 755 747 746 750 760 759 766 772 774 776 779 779 781 781 783 783 784 785 785 786 787 786 787 787 786 785 785 785 786 786 787 787 788 790 791 792 793 793 793 794
777 765 782 774 759 755 744 745 751 751 746 744 756 758 757 763 770 773 775 776 778 780 781 782 782 783 782 783 783 783 783 783 782 781 781 781 781 780 781 782 782 783 785 787 789 790 790 790 790
778 772 775 768 762 756 749 743 754 750 749 748 744 764 755 760 767 772 774 776 777 778 780 781 782 783 780 780 780 779 780 779 778 777 776 776 775 776 775 776 776 778 781 783 784 786 787 787 788
768 768 774 763 761 760 740 744 739 749 751 746 751 762 760 757 766 770 772 774 776 776 777 778 779 779 779 780 777 776 778 776 774 772 771 772 772 770 770 770 771 773 776 779 781 782 784 785 786
759 778 775 763 756 750 735 743 733 737 749 746 748 752 755 761 764 767 768 770 771 773 774 776 777 777 777 777 777 775 774 773 772 770 769 768 768 766 766 766 767 769 772 775 778 779 781 782 783
765 772 764 745 742 749 743 740 735 740 745 748 750 752 759 762 762 763 764 764 766 770 771 774 775 776 776 774 773 773 772 771 771 769 767 765 765 764 764 763 764 766 769 772 774 776 778 779 780
756 766 752 747 744 740 742 740 729 741 749 737 743 741 750 756 758 760 758 761 765 769 770 771 774 774 774 772 771 771 769 769 768 766 764 763 762 761 761 761 761 764 766 769 771 773 775 776 777
757 749 749 748 743 739 742 733 739 739 739 733 737 740 744 751 753 756 757 761 765 768 769 771 772 772 772 770 768 767 767 768 765 763 762 762 760 759 759 758 759 761 763 765 767 768 770 772 774
750 750 748 737 735 733 732 739 740 737 729 731 736 739 741 745 749 754 758 762 766 767 768 770 770 770 770 768 767 766 766 764 762 760 760 759 758 757 757 756 756 756 758 761 765 765 767 768 772
740 739 738 733 731 732 740 736 737 734 728 734 735 736 737 742 747 752 761 762 766 767 768 768 769 768 767 766 765 764 763 761 759 757 758 757 756 756 755 754 753 754 756 759 762 763 763 768 771
732 746 737 735 731 734 731 745 738 730 727 729 731 735 736 737 743 750 757 762 764 765 766 767 767 766 765 764 762 761 760 758 757 755 754 753 753 754 753 752 751 751 753 757 760 762 763 767 769
741 739 752 726 721 726 737 753 722 718 723 729 729 727 730 733 741 749 754 760 763 764 764 765 765 764 763 762 760 758 756 755 753 751 749 750 751 752 751 751 751 751 753 756 758 759 762 765 767
742 755 744 731 710 725 734 745 721 712 718 724 723 722 726 732 742 748 753 758 761 762 763 763 763 762 761 760 757 755 754 752 751 749 748 747 749 749 749 749 751 752 753 755 755 757 760 764 766
745 738 729 733 713 720 731 732 717 710 713 717 715 718 720 728 736 746 752 755 759 760 762 762 762 761 760 756 754 753 753 751 748 747 746 745 746 746 746 747 749 752 754 755 756 758 761 762 764
722 723 724 713 705 717 725 729 720 708 706 709 708 709 715 722 731 742 750 754 756 759 760 760 760 760 759 755 752 751 752 749 747 746 744 742 741 743 744 746 748 751 754 755 756 758 761 761 762
722 726 727 717 709 717 724 728 715 708 704 700 700 701 709 719 728 738 746 751 754 756 757 758 759 759 758 755 753 752 752 749 747 745 743 741 740 741 743 745 747 750 753 755 757 759 760 763 765
718 726 725 728 714 712 723 727 711 697 691 691 692 695 701 714 725 734 742 748 751 753 755 756 758 758 757 755 752 751 751 749 747 744 742 741 740 741 742 745 746 749 751 755 757 759 759 762 767
723 709 717 724 731 744 715 740 715 700 694 691 690 693 700 709 720 730 738 745 749 751 753 755 757 757 756 755 753 752 750 748 747 745 743 742 741 741 742 744 747 749 749 753 757 760 762 765 770
713 703 711 720 733 732 728 734 713 691 695 693 686 684 691 702 715 725 734 741 746 748 752 754 755 756 757 756 754 751 750 748 747 745 745 743 742 742 743 745 747 749 750 753 757 760 762 765 769
695 709 715 719 729 749 726 724 712 695 692 691 683 681 690 699 712 722 732 739 743 747 750 753 754 755 756 755 755 754 752 749 747 746 746 745 744 743 744 746 748 750 752 754 757 760 764 767 771
700 720 744 755 745 743 703 717 707 689 683 684 683 682 689 699 711 720 729 735 741 745 749 752 753 754 755 755 755 754 751 750 748 746 748 747 747 745 746 747 749 750 752 755 758 762 766 769 772
702 712 729 755 740 718 698 724 700 678 677 678 680 682 689 702 710 718 727 732 738 743 747 749 751 753 755 755 755 755 753 752 749 749 751 751 751 749 749 750 750 751 753 756 760 765 769 773 777
694 713 698 718 709 719 701 691 679 678 679 677 681 688 695 703 710 718 725 731 736 741 746 748 750 752 754 755 756 755 755 753 752 753 753 754 753 752 752 753 753 754 757 760 763 768 773 778 782
676 682 716 711 743 746 711 703 700 689 682 681 686 691 698 703 710 717 723 730 735 741 745 748 751 752 754 755 755 755 755 755 754 755 755 756 755 755 754 756 757 759 761 764 767 771 775 779 785
681 688 693 697 704 724 728 703 668 677 678 683 682 689 698 703 708 714 721 729 734 739 743 747 749 751 754 755 756 756 756 757 756 756 757 758 758 758 759 760 761 763 765 768 770 773 777 780 785
662 676 682 706 720 703 698 695 663 672 673 677 678 687 694 700 705 711 718 726 732 737 741 746 748 750 753 755 756 757 758 759 759 758 760 761 762 762 762 764 766 768 769 771 774 776 779 782 783
Wind_Speed
13 13 7 7 7 8 13 3 6 10 3 5 3 7 12 10 9 4 6 4 3 3 6 7 11 14 13 13 14 14 14 15 14 14 15 14 14 15 15 15 14 13 12 12 12 11 11 12 13
13 9 7 8 8 12 0 8 7 10 9 1 3 5 6 5 6 3 5 7 5 3 4 7 10 9 14 15 15 16 15 15 14 14 15 15 15 16 17 17 15 14 14 14 14 13 13 13 13
10 8 9 10 12 13 10 8 10 7 1 8 5 2 5 8 4 3 6 6 5 4 6 7 11 13 15 16 16 17 18 18 16 16 18 18 19 19 19 19 18 16 15 14 14 14 14 14 13
10 8 7 9 17 9 6 13 10 13 5 5 6 8 6 6 3 2 5 4 5 6 4 5 8 13 17 17 17 17 18 17 17 18 20 21 22 23 22 21 21 18 16 15 13 12 14 15 14
12 8 11 16 15 9 4 10 10 9 8 3 2 7 1 8 4 4 3 4 5 7 6 5 8 12 15 15 13 14 14 15 16 17 17 19 20 21 21 22 22 21 18 17 15 14 12 14 15
8 10 12 14 7 8 4 5 7 11 7 2 4 6 2 13 7 5 4 4 4 4 3 5 7 9 9 10 13 15 17 19 19 17 18 19 21 21 20 23 23 23 20 19 17 16 15 14 15
14 11 16 16 16 13 5 5 11 11 12 8 3 8 1 7 7 6 6 5 4 3 3 4 7 8 13 10 12 14 15 16 20 23 22 18 19 20 20 19 22 21 22 19 18 18 16 13 12
12 12 20 16 13 12 11 1 11 7 9 5 3 5 9 8 10 8 8 7 5 5 5 6 9 10 10 10 9 13 16 18 19 20 17 16 17 19 20 20 19 20 21 19 19 17 16 12 13
13 13 15 18 17 10 12 12 3 4 10 6 5 7 5 6 10 10 9 7 6 5 6 8 9 9 10 11 12 14 12 11 13 13 12 12 12 14 14 17 18 18 20 18 16 15 15 12 12
15 14 20 15 14 12 16 17 17 6 10 8 9 7 5 8 11 11 11 10 7 6 6 8 7 8 9 10 10 13 13 11 14 13 12 11 12 13 13 10 12 17 18 17 16 15 15 14 15
20 18 18 17 15 14 15 17 9 8 10 8 3 7 14 13 13 13 11 4 4 4 6 7 7 8 8 9 10 12 9 10 12 13 11 12 10 13 11 13 14 14 18 18 18 15 16 17 17
21 19 19 16 19 16 13 10 9 7 10 4 5 4 8 12 12 13 10 5 5 3 6 6 6 7 7 8 10 11 10 10 12 11 8 10 10 10 9 10 13 16 18 17 16 19 16 18 16
18 17 21 22 17 16 13 9 11 11 6 4 5 7 10 12 12 11 8 5 3 4 4 5 5 6 7 8 10 11 11 13 10 9 9 10 10 7 8 10 14 16 19 19 17 15 17 16 14
22 24 19 17 17 15 12 16 6 12 1 4 9 11 10 9 13 11 9 7 4 3 4 4 5 5 6 9 11 12 12 12 12 7 8 9 10 8 7 9 12 15 21 20 19 16 13 13 17
20 19 20 18 18 16 12 18 16 12 9 10 9 10 13 13 13 13 12 8 5 4 3 4 4 5 7 11 10 11 12 11 11 9 6 11 11 10 7 7 9 13 16 17 18 17 12 16 19
19 23 19 21 23 15 10 20 16 14 12 12 13 13 11 12 11 13 10 9 6 4 3 3 4 5 7 10 12 10 10 9 9 7 9 12 12 10 7 7 6 8 13 16 17 17 17 19 21
20 18 22 20 12 14 17 20 19 7 11 12 13 12 11 11 12 13 12 11 7 5 4 3 3 5 8 9 8 9 9 7 7 7 8 13 12 12 9 8 8 9 11 12 16 18 18 19 18
21 23 20 17 14 13 16 19 19 16 16 16 16 12 11 13 15 16 14 11 8 5 5 2 3 5 8 12 8 7 7 5 4 5 8 11 11 10 11 9 9 11 11 12 9 14 15 19 18
22 20 17 13 7 14 10 17 20 20 15 17 17 12 12 14 13 17 16 13 9 6 6 3 2 4 7 10 15 11 7 4 3 5 8 10 11 12 10 8 10 10 11 11 13 14 14 15 18
24 20 19 15 14 9 13 19 20 20 21 20 18 14 11 13 14 16 17 15 11 8 6 3 2 2 5 7 9 9 6 5 5 8 6 4 3 8 8 9 12 11 11 11 11 11 16 11 15
23 20 16 17 15 10 13 23 22 15 11 14 12 7 10 14 16 16 16 16 12 9 7 4 1 1 3 5 4 6 6 3 3 7 8 6 2 6 8 11 11 12 12 12 11 9 8 11 8
21 18 18 15 14 13 14 16 16 16 10 11 13 13 11 13 16 16 15 16 13 10 8 5 3 1 2 6 6 5 5 7 4 4 7 5 4 4 10 12 14 14 14 14 12 9 9 15 15
18 17 15 12 15 17 18 12 16 11 10 7 10 14 13 15 17 18 16 17 14 10 10 6 4 4 2 5 7 9 9 7 4 2 5 10 8 5 6 13 14 13 9 12 11 10 10 13 17
20 14 14 9 11 15 18 15 15 9 2 5 5 4 13 15 17 17 19 17 14 11 11 8 5 4 2 3 5 6 7 9 9 5 4 7 9 6 7 12 11 12 11 14 15 13 16 18 18
15 13 10 12 13 13 15 9 10 14 6 7 4 7 10 14 17 17 17 16 15 13 12 9 7 6 2 3 3 5 8 9 11 8 7 8 9 12 7 10 9 10 13 16 16 17 20 23 25
22 19 12 13 13 13 10 7 6 1 2 3 4 3 12 14 16 18 17 17 16 14 12 9 7 7 4 4 3 5 8 12 13 13 11 7 8 9 9 12 11 10 14 18 18 21 22 25 24
17 20 20 18 17 12 8 8 8 6 11 9 5 4 11 15 17 18 16 17 15 15 13 10 8 7 5 5 4 4 7 10 12 12 11 11 9 8 10 13 12 13 16 20 20 25 22 22 22
22 20 18 12 16 16 13 10 4 10 2 7 6 8 13 17 17 16 16 17 15 15 14 11 9 8 7 6 4 6 7 9 9 9 9 8 9 11 12 10 14 16 16 19 22 21 18 22 22
20 21 14 14 12 11 10 8 8 5 5 3 9 10 16 17 17 16 15 17 16 16 15 13 11 9 8 7 6 6 8 9 8 10 12 12 11 11 12 10 12 15 17 17 20 20 20 18 17
26 26 22 10 17 12 13 2 8 7 7 2 11 13 16 17 16 16 15 18 17 17 16 14 12 11 10 9 8 8 8 9 10 12 14 14 14 13 12 11 13 14 14 17 19 19 19 22 22
Wind_Direction
156 155 183 227 242 223 263 242 28 292 220 84 357 318 342 324 351 5 110 111 104 116 162 192 213 220 229 240 248 259 267 255 256 254 252 255 262 279 287 288 289 286 276 266 261 267 259 259 266
160 173 213 273 260 264 343 27 329 356 4 327 252 263 263 0 31 86 189 149 162 161 194 220 223 239 246 252 259 268 266 262 265 261 258 261 265 271 277 281 280 278 272 264 260 257 256 251 259
181 211 272 244 241 270 334 18 360 345 273 254 258 148 348 52 84 29 79 158 195 216 218 214 239 253 252 256 260 267 270 275 278 277 274 272 273 272 270 271 271 270 264 261 259 256 252 250 251
183 206 238 254 282 301 343 332 336 312 216 241 304 299 127 76 123 102 137 195 241 261 264 250 254 258 254 248 249 261 268 274 275 275 274 274 276 275 274 269 259 257 252 252 255 258 259 250 244
235 263 264 258 262 288 323 311 338 302 291 300 117 301 176 138 143 156 180 230 259 287 297 314 285 272 261 257 258 265 270 273 272 271 271 275 276 276 273 267 263 246 242 242 247 256 263 262 246
232 235 273 273 300 262 299 359 313 290 290 257 272 304 2 122 166 187 201 217 271 290 288 288 298 286 273 264 259 261 268 272 273 276 276 278 277 275 272 265 256 242 236 235 241 250 257 260 248
252 270 268 285 289 298 304 47 288 312 303 312 35 301 55 167 171 179 195 205 223 233 256 285 289 286 296 290 284 282 279 282 283 282 281 279 277 274 270 262 251 241 232 231 238 244 250 262 247
253 261 269 274 278 279 296 163 270 281 310 9 325 276 335 120 159 183 207 209 223 229 272 300 286 291 290 288 291 293 299 297 296 294 287 280 273 265 267 258 247 239 227 227 229 236 241 254 243
238 258 263 269 283 303 304 289 260 161 280 217 274 278 34 142 175 201 212 221 244 273 275 285 295 300 293 288 287 298 298 297 307 303 295 291 282 274 265 256 239 230 218 219 223 232 238 245 237
232 247 259 287 303 301 301 298 300 251 248 227 225 238 214 201 200 216 211 231 225 271 295 301 294 293 293 290 287 292 296 297 296 300 289 282 279 273 261 257 234 223 210 217 218 229 232 237 228
229 245 272 287 289 285 303 289 292 277 270 301 284 246 184 207 213 226 237 249 325 315 296 312 294 286 288 291 295 294 287 299 286 283 280 279 273 269 254 246 229 221 221 217 212 224 225 221 220
241 244 271 279 269 268 277 303 290 268 271 329 306 291 196 212 217 222 233 214 231 300 304 307 292 289 283 289 303 294 300 286 277 264 261 267 261 259 260 247 233 224 214 209 211 220 211 218 213
234 254 254 260 255 258 275 269 265 283 295 279 251 240 234 221 222 215 225 205 246 274 312 303 304 297 288 299 298 297 286 275 278 270 260 257 270 280 273 256 237 223 209 203 203 218 212 205 199
234 238 254 258 253 257 240 258 182 267 199 275 249 249 238 231 214 199 205 211 221 260 285 304 305 296 305 299 286 278 274 270 269 270 265 255 259 261 261 255 230 228 211 205 198 210 204 201 197
255 255 255 254 253 250 230 255 246 250 216 250 252 241 242 219 209 201 200 200 218 237 263 299 277 294 301 290 287 293 282 268 271 279 279 270 251 251 246 258 224 213 202 199 189 204 183 185 186
246 243 254 250 225 225 219 255 259 218 241 253 249 233 239 224 209 201 191 191 199 235 253 279 303 307 309 301 298 291 292 278 275 269 249 269 271 251 236 232 229 185 182 185 186 182 181 180 192
227 245 243 249 202 221 207 257 276 237 271 266 277 268 233 214 205 198 191 190 197 212 236 275 309 307 313 299 292 311 308 279 271 266 255 259 271 248 234 218 211 186 182 186 192 181 181 181 187
227 234 232 249 215 201 252 252 255 247 248 267 263 245 233 215 198 193 197 189 189 203 215 240 301 308 317 304 267 340 323 292 272 258 257 264 264 246 231 222 195 189 186 179 187 185 181 184 177
248 263 273 281 284 247 251 276 281 286 275 266 268 237 231 211 193 188 193 188 187 202 212 227 303 306 326 323 334 2 352 333 324 290 276 264 257 242 227 199 171 173 180 176 174 182 189 215 159
242 256 261 262 271 270 280 283 283 288 274 270 265 233 218 198 189 179 187 190 190 196 200 199 252 321 332 343 357 358 358 11 16 20 5 330 192 199 206 183 173 176 163 169 177 182 170 158 157
229 243 250 261 275 253 284 270 266 264 270 268 255 231 208 198 189 182 185 190 186 192 187 171 158 30 6 343 4 16 359 299 289 338 20 29 189 168 170 175 175 174 171 164 174 176 161 148 137
234 228 248 268 273 263 271 293 294 276 274 268 222 207 226 185 183 182 184 187 188 183 175 160 145 80 82 10 22 343 354 340 356 351 5 1 97 141 174 166 168 176 189 159 173 173 166 151 146
235 242 249 232 256 271 266 267 283 266 250 271 239 220 181 175 181 181 184 181 185 174 171 168 160 114 90 55 20 2 4 11 340 37 23 30 82 110 146 173 178 186 209 161 174 169 165 158 149
232 227 252 265 257 257 260 262 270 285 92 296 242 131 147 168 173 176 179 176 178 177 172 172 160 134 148 62 37 19 18 10 16 37 70 60 66 68 127 153 169 182 187 175 172 163 151 139 133
211 215 223 227 232 247 250 243 283 295 303 278 282 153 154 162 170 172 173 178 174 177 173 179 169 144 163 88 50 22 10 29 39 57 88 58 62 47 92 136 138 156 166 161 157 149 140 134 130
198 212 225 218 236 254 130 243 291 182 347 272 272 293 135 163 169 173 175 178 177 175 179 187 170 156 161 97 78 45 35 55 61 82 97 65 58 51 78 110 117 129 146 148 137 135 130 125 129
189 217 228 258 283 288 273 281 220 197 231 206 188 176 154 167 167 172 174 177 180 176 181 181 167 158 158 122 107 75 58 70 77 83 91 75 47 55 87 104 97 117 124 131 129 129 126 132 127
216 199 219 230 250 262 251 249 244 184 152 93 156 179 158 165 168 173 174 175 181 178 176 183 176 171 163 136 127 110 83 86 93 79 75 81 46 68 104 97 94 108 117 122 126 132 130 134 135
206 229 201 247 224 236 250 271 99 111 99 124 147 161 163 168 170 172 174 174 181 176 179 182 186 167 168 146 132 122 100 98 94 82 75 89 83 72 104 112 104 104 116 129 124 126 133 132 142
212 211 215 214 223 250 269 244 99 168 143 191 140 161 165 171 172 171 173 172 178 179 174 179 185 173 175 158 141 129 118 108 101 94 93 96 97 88 105 112 111 114 113 124 131 133 141 141 137